Time,TemperatureF,DewpointF,PressureIn,WindDirection,WindDirectionDegrees,WindSpeedMPH,WindSpeedGustMPH,Humidity,HourlyPrecipIn,Conditions,Clouds,dailyrainin,SoftwareType,DateUTC
2013-11-09 00:00:00,54.6,36.3,30.00,West,265,3.0,7.0,50,0.00,,---,0.00,VWS V14.01,2013-11-09 06:00:00,
2013-11-09 00:01:00,53.2,37.0,30.02,SW,217,2.0,3.0,54,0.00,,---,0.00,VWS V14.01,2013-11-09 06:01:00,
2013-11-09 00:06:00,53.1,36.9,30.02,SSW,194,1.0,4.0,54,0.00,,---,0.00,VWS V14.01,2013-11-09 06:06:00,
2013-11-09 00:10:00,54.5,36.8,30.01,SW,223,4.0,6.0,51,0.00,,---,0.00,VWS V14.01,2013-11-09 06:10:00,
2013-11-09 00:11:00,52.9,37.2,30.03,South,188,0.0,4.0,55,0.00,,---,0.00,VWS V14.01,2013-11-09 06:11:00,
2013-11-09 00:16:00,52.8,37.1,30.03,South,188,0.0,4.0,55,0.00,,---,0.00,VWS V14.01,2013-11-09 06:16:00,
2013-11-09 00:20:00,54.4,36.7,30.00,SW,220,0.0,10.0,51,0.00,,---,0.00,VWS V14.01,2013-11-09 06:20:00,
2013-11-09 00:21:00,52.6,37.4,30.03,South,188,0.0,2.0,56,0.00,,---,0.00,VWS V14.01,2013-11-09 06:21:00,
2013-11-09 00:26:00,52.4,37.2,30.03,South,188,0.0,2.0,56,0.00,,---,0.00,VWS V14.01,2013-11-09 06:26:00,
2013-11-09 00:30:00,54.1,36.9,30.01,SSW,196,1.0,9.0,52,0.00,,---,0.00,VWS V14.01,2013-11-09 06:30:00,
2013-11-09 00:31:00,52.2,37.4,30.04,South,188,1.0,2.0,57,0.00,,---,0.00,VWS V14.01,2013-11-09 06:31:00,
2013-11-09 00:36:00,51.9,37.2,30.04,South,188,0.0,2.0,57,0.00,,---,0.00,VWS V14.01,2013-11-09 06:36:00,
2013-11-09 00:40:00,53.9,37.2,30.01,SSW,200,0.0,7.0,53,0.00,,---,0.00,VWS V14.01,2013-11-09 06:40:00,
2013-11-09 00:41:00,51.8,37.1,30.04,SSW,193,3.0,3.0,57,0.00,,---,0.00,VWS V14.01,2013-11-09 06:41:00,
2013-11-09 00:46:00,51.7,37.4,30.04,SSW,193,2.0,4.0,58,0.00,,---,0.00,VWS V14.01,2013-11-09 06:46:00,
2013-11-09 00:50:00,53.6,36.9,30.01,SW,223,5.0,7.0,53,0.00,,---,0.00,VWS V14.01,2013-11-09 06:50:00,
2013-11-09 00:51:00,51.4,37.1,30.04,SSW,203,0.0,2.0,58,0.00,,---,0.00,VWS V14.01,2013-11-09 06:51:00,
2013-11-09 00:56:00,51.2,37.4,30.04,SSW,200,0.0,3.0,59,0.00,,---,0.00,VWS V14.01,2013-11-09 06:56:00,
2013-11-09 01:00:00,53.3,37.1,30.02,South,182,0.0,6.0,54,0.00,,---,0.00,VWS V14.01,2013-11-09 07:00:00,
2013-11-09 01:01:00,51.0,37.2,30.03,South,169,4.0,6.0,59,0.00,,---,0.00,VWS V14.01,2013-11-09 07:01:00,
2013-11-09 01:06:00,50.9,37.5,30.04,ESE,120,2.0,6.0,60,0.00,,---,0.00,VWS V14.01,2013-11-09 07:06:00,
2013-11-09 01:10:00,53.0,37.3,30.03,South,188,1.0,5.0,55,0.00,,---,0.00,VWS V14.01,2013-11-09 07:10:00,
2013-11-09 01:11:00,50.8,37.0,30.04,ESE,120,0.0,1.0,59,0.00,,---,0.00,VWS V14.01,2013-11-09 07:11:00,
2013-11-09 01:16:00,50.7,37.3,30.04,South,187,0.0,5.0,60,0.00,,---,0.00,VWS V14.01,2013-11-09 07:16:00,
2013-11-09 01:20:00,52.6,37.4,30.03,South,188,0.0,4.0,56,0.00,,---,0.00,VWS V14.01,2013-11-09 07:20:00,
2013-11-09 01:21:00,50.6,37.2,30.04,South,187,1.0,5.0,60,0.00,,---,0.00,VWS V14.01,2013-11-09 07:21:00,
2013-11-09 01:26:00,50.4,37.0,30.04,South,179,0.0,5.0,60,0.00,,---,0.00,VWS V14.01,2013-11-09 07:26:00,
2013-11-09 01:30:00,52.3,37.5,30.04,South,188,0.0,2.0,57,0.00,,---,0.00,VWS V14.01,2013-11-09 07:30:00,
2013-11-09 01:31:00,50.3,37.0,30.04,South,182,2.0,2.0,60,0.00,,---,0.00,VWS V14.01,2013-11-09 07:31:00,
2013-11-09 01:36:00,50.2,36.9,30.04,South,188,1.0,3.0,60,0.00,,---,0.00,VWS V14.01,2013-11-09 07:36:00,
2013-11-09 01:40:00,51.9,37.2,30.04,SSW,193,1.0,2.0,57,0.00,,---,0.00,VWS V14.01,2013-11-09 07:40:00,
2013-11-09 01:41:00,50.0,37.1,30.04,South,188,0.0,1.0,61,0.00,,---,0.00,VWS V14.01,2013-11-09 07:41:00,
2013-11-09 01:46:00,50.0,37.1,30.05,South,188,3.0,3.0,61,0.00,,---,0.00,VWS V14.01,2013-11-09 07:46:00,
2013-11-09 01:50:00,51.5,37.2,30.04,SSW,203,0.0,4.0,58,0.00,,---,0.00,VWS V14.01,2013-11-09 07:50:00,
2013-11-09 01:51:00,49.9,37.0,30.05,South,190,0.0,3.0,61,0.00,,---,0.00,VWS V14.01,2013-11-09 07:51:00,
2013-11-09 01:56:00,49.7,36.8,30.05,South,190,1.0,3.0,61,0.00,,---,0.00,VWS V14.01,2013-11-09 07:56:00,
2013-11-09 02:00:00,51.1,37.3,30.04,South,182,3.0,4.0,59,0.00,,---,0.00,VWS V14.01,2013-11-09 08:00:00,
2013-11-09 02:01:00,49.6,36.7,30.05,South,178,0.0,4.0,61,0.00,,---,0.00,VWS V14.01,2013-11-09 08:01:00,
2013-11-09 02:06:00,49.5,37.0,30.05,SW,215,0.0,4.0,62,0.00,,---,0.00,VWS V14.01,2013-11-09 08:06:00,
2013-11-09 02:10:00,50.9,37.1,30.04,ESE,120,0.0,6.0,59,0.00,,---,0.00,VWS V14.01,2013-11-09 08:10:00,
2013-11-09 02:11:00,49.3,36.8,30.05,SSW,202,0.0,1.0,62,0.00,,---,0.00,VWS V14.01,2013-11-09 08:11:00,
2013-11-09 02:16:00,49.2,36.8,30.05,SSW,201,0.0,2.0,62,0.00,,---,0.00,VWS V14.01,2013-11-09 08:16:00,
2013-11-09 02:20:00,50.6,37.2,30.04,South,184,4.0,5.0,60,0.00,,---,0.00,VWS V14.01,2013-11-09 08:20:00,
2013-11-09 02:21:00,49.1,37.1,30.06,SW,216,1.0,3.0,63,0.00,,---,0.00,VWS V14.01,2013-11-09 08:21:00,
2013-11-09 02:26:00,49.0,37.0,30.06,SW,216,0.0,3.0,63,0.00,,---,0.00,VWS V14.01,2013-11-09 08:26:00,
2013-11-09 02:30:00,50.4,37.0,30.04,South,182,0.0,7.0,60,0.00,,---,0.00,VWS V14.01,2013-11-09 08:30:00,
2013-11-09 02:31:00,48.8,36.8,30.06,SW,216,1.0,3.0,63,0.00,,---,0.00,VWS V14.01,2013-11-09 08:31:00,
2013-11-09 02:36:00,48.7,36.7,30.06,South,175,0.0,3.0,63,0.00,,---,0.00,VWS V14.01,2013-11-09 08:36:00,
2013-11-09 02:40:00,50.1,36.8,30.05,South,188,1.0,3.0,60,0.00,,---,0.00,VWS V14.01,2013-11-09 08:40:00,
2013-11-09 02:41:00,48.7,37.1,30.06,South,175,2.0,2.0,64,0.00,,---,0.00,VWS V14.01,2013-11-09 08:41:00,
2013-11-09 02:46:00,48.6,37.0,30.06,South,188,0.0,3.0,64,0.00,,---,0.00,VWS V14.01,2013-11-09 08:46:00,
2013-11-09 02:50:00,49.9,37.0,30.05,South,190,2.0,3.0,61,0.00,,---,0.00,VWS V14.01,2013-11-09 08:50:00,
2013-11-09 02:51:00,48.5,36.9,30.06,South,188,0.0,1.0,64,0.00,,---,0.00,VWS V14.01,2013-11-09 08:51:00,
2013-11-09 02:56:00,48.5,36.9,30.06,South,188,1.0,1.0,64,0.00,,---,0.00,VWS V14.01,2013-11-09 08:56:00,
2013-11-09 03:00:00,49.6,36.7,30.05,South,178,0.0,5.0,61,0.00,,---,0.00,VWS V14.01,2013-11-09 09:00:00,
2013-11-09 03:01:00,48.3,36.7,30.06,South,188,0.0,0.0,64,0.00,,---,0.00,VWS V14.01,2013-11-09 09:01:00,
2013-11-09 03:06:00,48.2,36.6,30.06,South,188,0.0,2.0,64,0.00,,---,0.00,VWS V14.01,2013-11-09 09:06:00,
2013-11-09 03:10:00,49.4,36.9,30.05,SSW,202,0.0,4.0,62,0.00,,---,0.00,VWS V14.01,2013-11-09 09:10:00,
2013-11-09 03:11:00,48.1,36.9,30.06,South,188,1.0,2.0,65,0.00,,---,0.00,VWS V14.01,2013-11-09 09:11:00,
2013-11-09 03:16:00,47.9,36.7,30.06,South,188,0.0,2.0,65,0.00,,---,0.00,VWS V14.01,2013-11-09 09:16:00,
2013-11-09 03:20:00,49.1,37.1,30.06,SSW,201,0.0,2.0,63,0.00,,---,0.00,VWS V14.01,2013-11-09 09:20:00,
2013-11-09 03:21:00,47.8,36.6,30.06,South,188,0.0,0.0,65,0.00,,---,0.00,VWS V14.01,2013-11-09 09:21:00,
2013-11-09 03:26:00,47.7,36.9,30.06,South,188,0.0,1.0,66,0.00,,---,0.00,VWS V14.01,2013-11-09 09:26:00,
2013-11-09 03:30:00,48.9,36.9,30.06,SW,216,0.0,3.0,63,0.00,,---,0.00,VWS V14.01,2013-11-09 09:30:00,
2013-11-09 03:31:00,47.6,36.8,30.06,South,188,0.0,0.0,66,0.00,,---,0.00,VWS V14.01,2013-11-09 09:31:00,
2013-11-09 03:36:00,47.4,36.6,30.06,South,188,0.0,1.0,66,0.00,,---,0.00,VWS V14.01,2013-11-09 09:36:00,
2013-11-09 03:40:00,48.7,36.7,30.06,South,175,0.0,3.0,63,0.00,,---,0.00,VWS V14.01,2013-11-09 09:40:00,
2013-11-09 03:41:00,47.2,36.4,30.06,South,188,0.0,0.0,66,0.00,,---,0.00,VWS V14.01,2013-11-09 09:41:00,
2013-11-09 03:46:00,47.0,36.6,30.07,South,188,0.0,1.0,67,0.00,,---,0.00,VWS V14.01,2013-11-09 09:46:00,
2013-11-09 03:50:00,48.5,36.9,30.06,South,188,0.0,3.0,64,0.00,,---,0.00,VWS V14.01,2013-11-09 09:50:00,
2013-11-09 03:51:00,46.7,36.3,30.07,South,188,0.0,0.0,67,0.00,,---,0.00,VWS V14.01,2013-11-09 09:51:00,
2013-11-09 03:56:00,46.6,36.6,30.06,South,188,0.0,1.0,68,0.00,,---,0.00,VWS V14.01,2013-11-09 09:56:00,
2013-11-09 04:00:00,48.4,36.8,30.06,South,188,0.0,1.0,64,0.00,,---,0.00,VWS V14.01,2013-11-09 10:00:00,
2013-11-09 04:01:00,46.5,36.5,30.07,South,188,0.0,0.0,68,0.00,,---,0.00,VWS V14.01,2013-11-09 10:01:00,
2013-11-09 04:06:00,46.4,36.4,30.07,South,188,0.0,1.0,68,0.00,,---,0.00,VWS V14.01,2013-11-09 10:06:00,
2013-11-09 04:10:00,48.1,36.9,30.06,South,188,0.0,2.0,65,0.00,,---,0.00,VWS V14.01,2013-11-09 10:10:00,
2013-11-09 04:11:00,46.3,36.3,30.07,South,188,0.0,2.0,68,0.00,,---,0.00,VWS V14.01,2013-11-09 10:11:00,
2013-11-09 04:16:00,46.3,36.7,30.07,South,188,0.0,4.0,69,0.00,,---,0.00,VWS V14.01,2013-11-09 10:16:00,
2013-11-09 04:20:00,47.8,36.6,30.06,South,188,0.0,2.0,65,0.00,,---,0.00,VWS V14.01,2013-11-09 10:20:00,
2013-11-09 04:21:00,46.2,36.6,30.07,South,188,0.0,1.0,69,0.00,,---,0.00,VWS V14.01,2013-11-09 10:21:00,
2013-11-09 04:26:00,46.2,36.6,30.08,South,188,0.0,1.0,69,0.00,,---,0.00,VWS V14.01,2013-11-09 10:26:00,
2013-11-09 04:30:00,47.6,36.8,30.06,South,188,0.0,1.0,66,0.00,,---,0.00,VWS V14.01,2013-11-09 10:30:00,
2013-11-09 04:31:00,46.1,36.9,30.08,South,188,0.0,1.0,70,0.00,,---,0.00,VWS V14.01,2013-11-09 10:31:00,
2013-11-09 04:36:00,46.0,36.8,30.08,South,188,0.0,2.0,70,0.00,,---,0.00,VWS V14.01,2013-11-09 10:36:00,
2013-11-09 04:40:00,47.2,36.4,30.06,South,188,0.0,1.0,66,0.00,,---,0.00,VWS V14.01,2013-11-09 10:40:00,
2013-11-09 04:41:00,45.9,36.7,30.08,South,188,2.0,4.0,70,0.00,,---,0.00,VWS V14.01,2013-11-09 10:41:00,
2013-11-09 04:46:00,45.8,36.6,30.08,South,188,0.0,4.0,70,0.00,,---,0.00,VWS V14.01,2013-11-09 10:46:00,
2013-11-09 04:50:00,46.9,36.5,30.07,South,188,0.0,1.0,67,0.00,,---,0.00,VWS V14.01,2013-11-09 10:50:00,
2013-11-09 04:51:00,45.7,36.8,30.08,South,188,1.0,2.0,71,0.00,,---,0.00,VWS V14.01,2013-11-09 10:51:00,
2013-11-09 04:56:00,45.6,36.8,30.08,South,188,0.0,3.0,71,0.00,,---,0.00,VWS V14.01,2013-11-09 10:56:00,
2013-11-09 05:00:00,46.5,36.5,30.07,South,188,0.0,1.0,68,0.00,,---,0.00,VWS V14.01,2013-11-09 11:00:00,
2013-11-09 05:01:00,45.5,36.7,30.08,South,188,0.0,1.0,71,0.00,,---,0.00,VWS V14.01,2013-11-09 11:01:00,
2013-11-09 05:06:00,45.4,36.6,30.09,South,188,0.0,2.0,71,0.00,,---,0.00,VWS V14.01,2013-11-09 11:06:00,
2013-11-09 05:10:00,46.3,36.3,30.07,South,188,0.0,3.0,68,0.00,,---,0.00,VWS V14.01,2013-11-09 11:10:00,
2013-11-09 05:11:00,45.3,36.8,30.09,South,188,0.0,1.0,72,0.00,,---,0.00,VWS V14.01,2013-11-09 11:11:00,
2013-11-09 05:16:00,45.2,36.4,30.09,South,188,0.0,1.0,71,0.00,,---,0.00,VWS V14.01,2013-11-09 11:16:00,
2013-11-09 05:20:00,46.2,36.6,30.07,South,188,0.0,4.0,69,0.00,,---,0.00,VWS V14.01,2013-11-09 11:20:00,
2013-11-09 05:21:00,45.1,36.6,30.09,South,188,1.0,1.0,72,0.00,,---,0.00,VWS V14.01,2013-11-09 11:21:00,
2013-11-09 05:26:00,45.0,36.5,30.09,South,188,0.0,1.0,72,0.00,,---,0.00,VWS V14.01,2013-11-09 11:26:00,
2013-11-09 05:30:00,46.1,36.5,30.08,South,188,0.0,2.0,69,0.00,,---,0.00,VWS V14.01,2013-11-09 11:30:00,
2013-11-09 05:31:00,44.9,36.4,30.10,South,188,0.0,1.0,72,0.00,,---,0.00,VWS V14.01,2013-11-09 11:31:00,
2013-11-09 05:36:00,44.8,36.7,30.10,South,188,0.0,1.0,73,0.00,,---,0.00,VWS V14.01,2013-11-09 11:36:00,
2013-11-09 05:40:00,45.9,36.7,30.08,South,188,0.0,2.0,70,0.00,,---,0.00,VWS V14.01,2013-11-09 11:40:00,
2013-11-09 05:41:00,44.7,36.6,30.10,South,188,0.0,0.0,73,0.00,,---,0.00,VWS V14.01,2013-11-09 11:41:00,
2013-11-09 05:46:00,44.6,36.5,30.10,South,188,0.0,0.0,73,0.00,,---,0.00,VWS V14.01,2013-11-09 11:46:00,
2013-11-09 05:50:00,45.7,36.8,30.08,South,188,0.0,4.0,71,0.00,,---,0.00,VWS V14.01,2013-11-09 11:50:00,
2013-11-09 05:51:00,44.4,36.7,30.10,South,188,0.0,0.0,74,0.00,,---,0.00,VWS V14.01,2013-11-09 11:51:00,
2013-11-09 05:56:00,44.3,36.5,30.11,South,188,0.0,0.0,74,0.00,,---,0.00,VWS V14.01,2013-11-09 11:56:00,
2013-11-09 06:00:00,45.5,36.7,30.08,South,188,1.0,3.0,71,0.00,,---,0.00,VWS V14.01,2013-11-09 12:00:00,
2013-11-09 06:01:00,44.1,36.4,30.12,South,188,0.0,2.0,74,0.00,,---,0.00,VWS V14.01,2013-11-09 12:01:00,
2013-11-09 06:06:00,43.9,36.2,30.12,South,188,1.0,2.0,74,0.00,,---,0.00,VWS V14.01,2013-11-09 12:06:00,
2013-11-09 06:10:00,45.3,36.8,30.09,South,188,0.0,2.0,72,0.00,,---,0.00,VWS V14.01,2013-11-09 12:10:00,
2013-11-09 06:11:00,43.8,36.4,30.12,South,188,0.0,1.0,75,0.00,,---,0.00,VWS V14.01,2013-11-09 12:11:00,
2013-11-09 06:16:00,43.7,36.3,30.12,South,188,0.0,1.0,75,0.00,,---,0.00,VWS V14.01,2013-11-09 12:16:00,
2013-11-09 06:20:00,45.1,36.6,30.09,South,188,0.0,1.0,72,0.00,,---,0.00,VWS V14.01,2013-11-09 12:20:00,
2013-11-09 06:21:00,43.7,36.3,30.12,South,188,0.0,0.0,75,0.00,,---,0.00,VWS V14.01,2013-11-09 12:21:00,
2013-11-09 06:26:00,43.7,36.6,30.12,South,188,0.0,0.0,76,0.00,,---,0.00,VWS V14.01,2013-11-09 12:26:00,
2013-11-09 06:30:00,44.9,36.4,30.10,South,188,1.0,1.0,72,0.00,,---,0.00,VWS V14.01,2013-11-09 12:30:00,
2013-11-09 06:31:00,43.6,36.5,30.12,South,188,0.0,1.0,76,0.00,,---,0.00,VWS V14.01,2013-11-09 12:31:00,
2013-11-09 06:36:00,43.6,36.5,30.13,South,188,0.0,1.0,76,0.00,,---,0.00,VWS V14.01,2013-11-09 12:36:00,
2013-11-09 06:40:00,44.7,36.6,30.10,South,188,0.0,1.0,73,0.00,,---,0.00,VWS V14.01,2013-11-09 12:40:00,
2013-11-09 06:41:00,43.6,36.5,30.13,South,188,0.0,0.0,76,0.00,,---,0.00,VWS V14.01,2013-11-09 12:41:00,
2013-11-09 06:46:00,43.4,36.3,30.14,South,188,0.0,0.0,76,0.00,,---,0.00,VWS V14.01,2013-11-09 12:46:00,
2013-11-09 06:50:00,44.5,36.7,30.10,South,188,0.0,0.0,74,0.00,,---,0.00,VWS V14.01,2013-11-09 12:50:00,
2013-11-09 06:51:00,43.4,36.3,30.14,South,188,0.0,0.0,76,0.00,,---,0.00,VWS V14.01,2013-11-09 12:51:00,
2013-11-09 06:56:00,43.3,36.6,30.14,South,188,0.0,1.0,77,0.00,,---,0.00,VWS V14.01,2013-11-09 12:56:00,
2013-11-09 07:00:00,44.1,36.3,30.11,South,188,2.0,3.0,74,0.00,,---,0.00,VWS V14.01,2013-11-09 13:00:00,
2013-11-09 07:01:00,43.2,36.5,30.14,South,188,0.0,0.0,77,0.00,,---,0.00,VWS V14.01,2013-11-09 13:01:00,
2013-11-09 07:06:00,43.1,36.4,30.14,South,188,0.0,1.0,77,0.00,,---,0.00,VWS V14.01,2013-11-09 13:06:00,
2013-11-09 07:10:00,43.8,36.1,30.12,South,188,0.0,2.0,74,0.00,,---,0.00,VWS V14.01,2013-11-09 13:10:00,
2013-11-09 07:11:00,43.0,36.3,30.15,South,188,0.0,0.0,77,0.00,,---,0.00,VWS V14.01,2013-11-09 13:11:00,
2013-11-09 07:15:00,43.0,36.3,30.15,South,188,0.0,1.0,77,0.00,,---,0.00,VWS V14.01,2013-11-09 13:15:00,
2013-11-09 07:20:00,42.9,36.5,30.15,South,189,0.0,0.0,78,0.00,,---,0.00,VWS V14.01,2013-11-09 13:20:00,
2013-11-09 07:25:00,42.9,36.2,30.16,South,189,0.0,1.0,77,0.00,,---,0.00,VWS V14.01,2013-11-09 13:25:00,
2013-11-09 07:30:00,42.9,36.5,30.16,South,189,0.0,0.0,78,0.00,,---,0.00,VWS V14.01,2013-11-09 13:30:00,
2013-11-09 07:36:00,43.0,36.6,30.16,South,189,0.0,1.0,78,0.00,,---,0.00,VWS V14.01,2013-11-09 13:36:00,
2013-11-09 07:40:00,43.6,36.5,30.13,South,188,0.0,1.0,76,0.00,,---,0.00,VWS V14.01,2013-11-09 13:40:00,
2013-11-09 07:41:00,43.0,36.6,30.16,South,189,0.0,0.0,78,0.00,,---,0.00,VWS V14.01,2013-11-09 13:41:00,
2013-11-09 07:46:00,43.0,36.3,30.16,South,189,1.0,1.0,77,0.00,,---,0.00,VWS V14.01,2013-11-09 13:46:00,
2013-11-09 07:50:00,43.1,36.4,30.17,South,189,0.0,0.0,77,0.00,,---,0.00,VWS V14.01,2013-11-09 13:50:00,
2013-11-09 07:55:00,43.2,36.5,30.17,South,189,0.0,4.0,77,0.00,,---,0.00,VWS V14.01,2013-11-09 13:55:00,
2013-11-09 08:00:00,43.3,36.6,30.17,South,189,1.0,3.0,77,0.00,,---,0.00,VWS V14.01,2013-11-09 14:00:00,
2013-11-09 08:06:00,43.5,36.8,30.17,South,189,0.0,3.0,77,0.00,,---,0.00,VWS V14.01,2013-11-09 14:06:00,
2013-11-09 08:10:00,43.7,36.6,30.17,SSW,205,0.0,4.0,76,0.00,,---,0.00,VWS V14.01,2013-11-09 14:10:00,
2013-11-09 08:15:00,43.9,37.2,30.17,SSW,205,1.0,4.0,77,0.00,,---,0.00,VWS V14.01,2013-11-09 14:15:00,
2013-11-09 08:20:00,44.2,37.1,30.17,SSW,205,1.0,1.0,76,0.00,,---,0.00,VWS V14.01,2013-11-09 14:20:00,
2013-11-09 08:25:00,44.4,37.3,30.18,SSW,205,0.0,2.0,76,0.00,,---,0.00,VWS V14.01,2013-11-09 14:25:00,
2013-11-09 08:30:00,44.7,37.3,30.18,SSW,207,2.0,3.0,75,0.00,,---,0.00,VWS V14.01,2013-11-09 14:30:00,
2013-11-09 08:35:00,45.0,37.6,30.18,SSW,207,0.0,3.0,75,0.00,,---,0.00,VWS V14.01,2013-11-09 14:35:00,
2013-11-09 08:40:00,45.3,37.5,30.18,SW,214,1.0,2.0,74,0.00,,---,0.00,VWS V14.01,2013-11-09 14:40:00,
2013-11-09 08:45:00,45.7,37.9,30.18,SW,214,0.0,2.0,74,0.00,,---,0.00,VWS V14.01,2013-11-09 14:45:00,
2013-11-09 08:50:00,46.0,38.2,30.19,SW,214,0.0,2.0,74,0.00,,---,0.00,VWS V14.01,2013-11-09 14:50:00,
2013-11-09 08:55:00,46.3,38.1,30.19,WSW,252,2.0,4.0,73,0.00,,---,0.00,VWS V14.01,2013-11-09 14:55:00,
2013-11-09 09:00:00,46.7,38.2,30.19,West,267,1.0,2.0,72,0.00,,---,0.00,VWS V14.01,2013-11-09 15:00:00,
2013-11-09 09:05:00,47.1,38.2,30.19,West,277,0.0,3.0,71,0.00,,---,0.00,VWS V14.01,2013-11-09 15:05:00,
2013-11-09 09:10:00,47.4,38.5,30.19,West,277,1.0,2.0,71,0.00,,---,0.00,VWS V14.01,2013-11-09 15:10:00,
2013-11-09 09:15:00,47.6,38.3,30.19,WSW,250,1.0,3.0,70,0.00,,---,0.00,VWS V14.01,2013-11-09 15:15:00,
2013-11-09 09:20:00,47.9,38.6,30.19,WNW,288,0.0,2.0,70,0.00,,---,0.00,VWS V14.01,2013-11-09 15:20:00,
2013-11-09 09:25:00,48.2,38.9,30.19,WNW,288,1.0,2.0,70,0.00,,---,0.00,VWS V14.01,2013-11-09 15:25:00,
2013-11-09 09:30:00,48.5,38.8,30.19,WNW,288,2.0,2.0,69,0.00,,---,0.00,VWS V14.01,2013-11-09 15:30:00,
2013-11-09 09:35:00,48.9,38.8,30.19,WNW,288,4.0,4.0,68,0.00,,---,0.00,VWS V14.01,2013-11-09 15:35:00,
2013-11-09 09:40:00,49.4,38.9,30.19,WNW,288,1.0,1.0,67,0.00,,---,0.00,VWS V14.01,2013-11-09 15:40:00,
2013-11-09 09:45:00,50.0,39.1,30.19,WNW,288,0.0,4.0,66,0.00,,---,0.00,VWS V14.01,2013-11-09 15:45:00,
2013-11-09 09:50:00,50.5,39.2,30.19,WNW,288,1.0,1.0,65,0.00,,---,0.00,VWS V14.01,2013-11-09 15:50:00,
2013-11-09 09:55:00,51.2,39.0,30.20,WSW,238,1.0,6.0,63,0.00,,---,0.00,VWS V14.01,2013-11-09 15:55:00,
2013-11-09 10:00:00,51.8,38.8,30.20,NW,305,1.0,1.0,61,0.00,,---,0.00,VWS V14.01,2013-11-09 16:00:00,
2013-11-09 10:05:00,52.5,38.6,30.20,West,269,0.0,5.0,59,0.00,,---,0.00,VWS V14.01,2013-11-09 16:05:00,
2013-11-09 10:10:00,53.2,37.9,30.20,WSW,241,0.0,4.0,56,0.00,,---,0.00,VWS V14.01,2013-11-09 16:10:00,
2013-11-09 10:15:00,53.9,38.1,30.20,NNW,328,0.0,6.0,55,0.00,,---,0.00,VWS V14.01,2013-11-09 16:15:00,
2013-11-09 10:20:00,54.6,38.3,30.20,WNW,292,5.0,5.0,54,0.00,,---,0.00,VWS V14.01,2013-11-09 16:20:00,
2013-11-09 10:25:00,55.2,38.4,30.20,West,279,1.0,5.0,53,0.00,,---,0.00,VWS V14.01,2013-11-09 16:25:00,
2013-11-09 10:30:00,55.7,37.9,30.20,NW,323,1.0,2.0,51,0.00,,---,0.00,VWS V14.01,2013-11-09 16:30:00,
2013-11-09 10:35:00,56.2,38.3,30.20,WSW,244,1.0,5.0,51,0.00,,---,0.00,VWS V14.01,2013-11-09 16:35:00,
2013-11-09 10:40:00,56.7,38.3,30.20,SSW,194,4.0,6.0,50,0.00,,---,0.00,VWS V14.01,2013-11-09 16:40:00,
2013-11-09 10:45:00,57.1,38.1,30.20,SW,235,2.0,6.0,49,0.00,,---,0.00,VWS V14.01,2013-11-09 16:45:00,
2013-11-09 10:50:00,57.5,38.5,30.20,WSW,242,0.0,2.0,49,0.00,,---,0.00,VWS V14.01,2013-11-09 16:50:00,
2013-11-09 10:55:00,57.9,38.3,30.20,SE,138,1.0,3.0,48,0.00,,---,0.00,VWS V14.01,2013-11-09 16:55:00,
2013-11-09 11:00:00,58.5,36.7,30.20,NNE,33,4.0,5.0,44,0.00,,---,0.00,VWS V14.01,2013-11-09 17:00:00,
2013-11-09 11:05:00,59.0,36.0,30.20,South,184,9.0,9.0,42,0.00,,---,0.00,VWS V14.01,2013-11-09 17:05:00,
2013-11-09 11:10:00,59.4,36.3,30.20,SW,234,0.0,3.0,42,0.00,,---,0.00,VWS V14.01,2013-11-09 17:10:00,
2013-11-09 11:15:00,59.7,36.6,30.20,West,263,2.0,12.0,42,0.00,,---,0.00,VWS V14.01,2013-11-09 17:15:00,
2013-11-09 11:20:00,60.0,36.2,30.20,WNW,290,2.0,8.0,41,0.00,,---,0.00,VWS V14.01,2013-11-09 17:20:00,
2013-11-09 11:25:00,60.3,36.5,30.20,WSW,240,6.0,8.0,41,0.00,,---,0.00,VWS V14.01,2013-11-09 17:25:00,
2013-11-09 11:30:00,60.6,36.8,30.20,West,263,1.0,5.0,41,0.00,,---,0.00,VWS V14.01,2013-11-09 17:30:00,
2013-11-09 11:35:00,60.9,36.4,30.19,NW,323,1.0,7.0,40,0.00,,---,0.00,VWS V14.01,2013-11-09 17:35:00,
2013-11-09 11:40:00,61.1,36.6,30.19,WSW,242,3.0,5.0,40,0.00,,---,0.00,VWS V14.01,2013-11-09 17:40:00,
2013-11-09 11:45:00,61.4,37.5,30.19,WNW,298,2.0,6.0,41,0.00,,---,0.00,VWS V14.01,2013-11-09 17:45:00,
2013-11-09 11:50:00,61.6,37.7,30.19,North,9,0.0,1.0,41,0.00,,---,0.00,VWS V14.01,2013-11-09 17:50:00,
2013-11-09 11:55:00,61.9,38.0,30.19,SSW,194,6.0,9.0,41,0.00,,---,0.00,VWS V14.01,2013-11-09 17:55:00,
2013-11-09 12:00:00,62.2,38.2,30.19,WNW,298,1.0,5.0,41,0.00,,---,0.00,VWS V14.01,2013-11-09 18:00:00,
2013-11-09 12:05:00,62.4,38.4,30.19,WSW,246,4.0,5.0,41,0.00,,---,0.00,VWS V14.01,2013-11-09 18:05:00,
2013-11-09 12:10:00,62.6,38.6,30.19,West,269,2.0,5.0,41,0.00,,---,0.00,VWS V14.01,2013-11-09 18:10:00,
2013-11-09 12:15:00,62.9,38.2,30.19,ENE,61,1.0,5.0,40,0.00,,---,0.00,VWS V14.01,2013-11-09 18:15:00,
2013-11-09 12:20:00,63.3,38.0,30.19,WNW,291,2.0,4.0,39,0.00,,---,0.00,VWS V14.01,2013-11-09 18:20:00,
2013-11-09 12:25:00,63.6,38.2,30.19,South,189,2.0,6.0,39,0.00,,---,0.00,VWS V14.01,2013-11-09 18:25:00,
2013-11-09 12:30:00,64.0,37.9,30.19,SW,222,1.0,3.0,38,0.00,,---,0.00,VWS V14.01,2013-11-09 18:30:00,
2013-11-09 12:35:00,64.4,38.3,30.19,WSW,247,0.0,6.0,38,0.00,,---,0.00,VWS V14.01,2013-11-09 18:35:00,
2013-11-09 12:40:00,64.7,36.4,30.19,SW,233,7.0,9.0,35,0.00,,---,0.00,VWS V14.01,2013-11-09 18:40:00,
2013-11-09 12:45:00,64.9,36.6,30.19,WSW,244,2.0,9.0,35,0.00,,---,0.00,VWS V14.01,2013-11-09 18:45:00,
2013-11-09 12:50:00,65.2,36.9,30.19,SSW,202,3.0,8.0,35,0.00,,---,0.00,VWS V14.01,2013-11-09 18:50:00,
2013-11-09 12:55:00,65.4,37.1,30.19,WSW,250,0.0,10.0,35,0.00,,---,0.00,VWS V14.01,2013-11-09 18:55:00,
2013-11-09 13:00:00,65.7,35.8,30.19,SW,234,2.0,3.0,33,0.00,,---,0.00,VWS V14.01,2013-11-09 19:00:00,
2013-11-09 13:05:00,65.8,35.2,30.18,SW,230,8.0,8.0,32,0.00,,---,0.00,VWS V14.01,2013-11-09 19:05:00,
2013-11-09 13:10:00,65.8,35.9,30.18,SSW,210,0.0,1.0,33,0.00,,---,0.00,VWS V14.01,2013-11-09 19:10:00,
2013-11-09 13:15:00,66.1,36.2,30.18,SW,228,0.0,7.0,33,0.00,,---,0.00,VWS V14.01,2013-11-09 19:15:00,
2013-11-09 13:20:00,66.3,36.4,30.18,WNW,287,4.0,4.0,33,0.00,,---,0.00,VWS V14.01,2013-11-09 19:20:00,
2013-11-09 13:25:00,66.4,35.7,30.18,South,183,2.0,8.0,32,0.00,,---,0.00,VWS V14.01,2013-11-09 19:25:00,
2013-11-09 13:30:00,66.5,35.8,30.19,WSW,258,4.0,8.0,32,0.00,,---,0.00,VWS V14.01,2013-11-09 19:30:00,
2013-11-09 13:35:00,66.6,35.8,30.19,WSW,243,4.0,8.0,32,0.00,,---,0.00,VWS V14.01,2013-11-09 19:35:00,
2013-11-09 13:40:00,66.7,35.9,30.19,NW,309,2.0,7.0,32,0.00,,---,0.00,VWS V14.01,2013-11-09 19:40:00,
2013-11-09 13:45:00,66.6,35.8,30.19,SW,217,1.0,7.0,32,0.00,,---,0.00,VWS V14.01,2013-11-09 19:45:00,
2013-11-09 13:50:00,66.5,35.8,30.19,WSW,243,3.0,3.0,32,0.00,,---,0.00,VWS V14.01,2013-11-09 19:50:00,
2013-11-09 13:55:00,66.5,35.8,30.19,WSW,246,0.0,8.0,32,0.00,,---,0.00,VWS V14.01,2013-11-09 19:55:00,
2013-11-09 14:00:00,66.4,35.7,30.19,NE,46,5.0,6.0,32,0.00,,---,0.00,VWS V14.01,2013-11-09 20:00:00,
2013-11-09 14:05:00,66.2,35.5,30.19,NNE,24,2.0,8.0,32,0.00,,---,0.00,VWS V14.01,2013-11-09 20:05:00,
2013-11-09 14:10:00,66.0,35.3,30.19,NE,42,1.0,8.0,32,0.00,,---,0.00,VWS V14.01,2013-11-09 20:10:00,
2013-11-09 14:15:00,66.0,36.1,30.19,WNW,297,1.0,8.0,33,0.00,,---,0.00,VWS V14.01,2013-11-09 20:15:00,
2013-11-09 14:20:00,66.0,35.3,30.19,SE,130,1.0,2.0,32,0.00,,---,0.00,VWS V14.01,2013-11-09 20:20:00,
2013-11-09 14:25:00,66.0,35.3,30.19,West,279,4.0,7.0,32,0.00,,---,0.00,VWS V14.01,2013-11-09 20:25:00,
2013-11-09 14:30:00,66.0,35.3,30.19,WSW,241,1.0,3.0,32,0.00,,---,0.00,VWS V14.01,2013-11-09 20:30:00,
2013-11-09 14:35:00,66.0,34.5,30.20,ENE,59,4.0,12.0,31,0.00,,---,0.00,VWS V14.01,2013-11-09 20:35:00,
2013-11-09 14:40:00,65.8,34.3,30.20,West,260,3.0,3.0,31,0.00,,---,0.00,VWS V14.01,2013-11-09 20:40:00,
2013-11-09 14:45:00,65.8,35.2,30.20,NE,46,6.0,6.0,32,0.00,,---,0.00,VWS V14.01,2013-11-09 20:45:00,
2013-11-09 14:50:00,65.7,35.1,30.20,NE,43,1.0,4.0,32,0.00,,---,0.00,VWS V14.01,2013-11-09 20:50:00,
2013-11-09 14:55:00,65.6,35.0,30.20,WNW,290,0.0,4.0,32,0.00,,---,0.00,VWS V14.01,2013-11-09 20:55:00,
2013-11-09 15:00:00,65.6,34.2,30.20,SW,229,3.0,8.0,31,0.00,,---,0.00,VWS V14.01,2013-11-09 21:00:00,
2013-11-09 15:05:00,65.5,34.1,30.20,WSW,238,2.0,8.0,31,0.00,,---,0.00,VWS V14.01,2013-11-09 21:05:00,
2013-11-09 15:10:00,65.4,34.0,30.20,NE,55,0.0,2.0,31,0.00,,---,0.00,VWS V14.01,2013-11-09 21:10:00,
2013-11-09 15:15:00,65.2,33.8,30.20,NNE,18,5.0,7.0,31,0.00,,---,0.00,VWS V14.01,2013-11-09 21:15:00,
2013-11-09 15:20:00,64.9,34.4,30.21,NE,54,4.0,5.0,32,0.00,,---,0.00,VWS V14.01,2013-11-09 21:20:00,
2013-11-09 15:25:00,64.6,34.9,30.21,West,259,0.0,7.0,33,0.00,,---,0.00,VWS V14.01,2013-11-09 21:25:00,
2013-11-09 15:30:00,64.5,34.8,30.20,NE,36,1.0,2.0,33,0.00,,---,0.00,VWS V14.01,2013-11-09 21:30:00,
2013-11-09 15:35:00,64.5,34.8,30.21,WSW,256,1.0,7.0,33,0.00,,---,0.00,VWS V14.01,2013-11-09 21:35:00,
2013-11-09 15:40:00,64.4,33.9,30.21,NE,53,2.0,3.0,32,0.00,,---,0.00,VWS V14.01,2013-11-09 21:40:00,
2013-11-09 15:45:00,64.3,34.6,30.21,NE,55,2.0,8.0,33,0.00,,---,0.00,VWS V14.01,2013-11-09 21:45:00,
2013-11-09 15:50:00,64.3,34.6,30.21,SW,228,5.0,5.0,33,0.00,,---,0.00,VWS V14.01,2013-11-09 21:50:00,
2013-11-09 15:55:00,64.3,35.4,30.22,WNW,295,0.0,5.0,34,0.00,,---,0.00,VWS V14.01,2013-11-09 21:55:00,
2013-11-09 16:00:00,64.2,35.3,30.22,ENE,60,1.0,4.0,34,0.00,,---,0.00,VWS V14.01,2013-11-09 22:00:00,
2013-11-09 16:05:00,63.9,35.0,30.22,NE,53,1.0,5.0,34,0.00,,---,0.00,VWS V14.01,2013-11-09 22:05:00,
2013-11-09 16:10:00,63.7,34.8,30.22,WSW,249,0.0,2.0,34,0.00,,---,0.00,VWS V14.01,2013-11-09 22:10:00,
2013-11-09 16:15:00,63.5,34.7,30.22,NE,43,2.0,5.0,34,0.00,,---,0.00,VWS V14.01,2013-11-09 22:15:00,
2013-11-09 16:20:00,63.3,35.2,30.22,NE,43,1.0,1.0,35,0.00,,---,0.00,VWS V14.01,2013-11-09 22:20:00,
2013-11-09 16:25:00,63.2,35.1,30.22,NE,49,0.0,4.0,35,0.00,,---,0.00,VWS V14.01,2013-11-09 22:25:00,
2013-11-09 16:30:00,63.2,35.8,30.22,East,95,2.0,3.0,36,0.00,,---,0.00,VWS V14.01,2013-11-09 22:30:00,
2013-11-09 16:35:00,63.1,35.0,30.23,North,355,2.0,4.0,35,0.00,,---,0.00,VWS V14.01,2013-11-09 22:35:00,
2013-11-09 16:40:00,63.0,34.9,30.23,NNE,28,2.0,3.0,35,0.00,,---,0.00,VWS V14.01,2013-11-09 22:40:00,
2013-11-09 16:45:00,62.8,34.8,30.23,NE,37,0.0,3.0,35,0.00,,---,0.00,VWS V14.01,2013-11-09 22:45:00,
2013-11-09 16:50:00,62.6,35.3,30.23,NNE,22,0.0,0.0,36,0.00,,---,0.00,VWS V14.01,2013-11-09 22:50:00,
2013-11-09 16:55:00,62.5,35.2,30.23,NNE,32,0.0,2.0,36,0.00,,---,0.00,VWS V14.01,2013-11-09 22:55:00,
2013-11-09 17:00:00,62.3,35.0,30.23,NNE,32,0.0,0.0,36,0.00,,---,0.00,VWS V14.01,2013-11-09 23:00:00,
2013-11-09 17:05:00,62.1,35.5,30.23,NNE,32,0.0,0.0,37,0.00,,---,0.00,VWS V14.01,2013-11-09 23:05:00,
2013-11-09 17:10:00,62.0,36.1,30.23,NNE,32,0.0,0.0,38,0.00,,---,0.00,VWS V14.01,2013-11-09 23:10:00,
2013-11-09 17:15:00,61.8,36.6,30.23,NNE,32,0.0,0.0,39,0.00,,---,0.00,VWS V14.01,2013-11-09 23:15:00,
2013-11-09 17:20:00,61.6,36.4,30.23,NNE,32,0.0,0.0,39,0.00,,---,0.00,VWS V14.01,2013-11-09 23:20:00,
2013-11-09 17:25:00,61.3,37.4,30.23,NNE,32,0.0,0.0,41,0.00,,---,0.00,VWS V14.01,2013-11-09 23:25:00,
2013-11-09 17:30:00,61.0,36.5,30.24,NNE,32,0.0,0.0,40,0.00,,---,0.00,VWS V14.01,2013-11-09 23:30:00,
2013-11-09 17:35:00,60.7,37.5,30.24,NNE,32,0.0,0.0,42,0.00,,---,0.00,VWS V14.01,2013-11-09 23:35:00,
2013-11-09 17:40:00,60.3,37.1,30.24,NNE,32,0.0,0.0,42,0.00,,---,0.00,VWS V14.01,2013-11-09 23:40:00,
2013-11-09 17:45:00,59.9,38.0,30.24,NNE,32,0.0,0.0,44,0.00,,---,0.00,VWS V14.01,2013-11-09 23:45:00,
2013-11-09 17:50:00,59.5,37.6,30.25,NNE,32,0.0,0.0,44,0.00,,---,0.00,VWS V14.01,2013-11-09 23:50:00,
2013-11-09 17:55:00,59.0,37.7,30.25,NNE,32,0.0,0.0,45,0.00,,---,0.00,VWS V14.01,2013-11-09 23:55:00,
2013-11-09 18:00:00,58.5,37.8,30.25,NNE,32,0.0,0.0,46,0.00,,---,0.00,VWS V14.01,2013-11-10 00:00:00,
2013-11-09 18:05:00,58.0,37.4,30.26,NNE,32,0.0,0.0,46,0.00,,---,0.00,VWS V14.01,2013-11-10 00:05:00,
2013-11-09 18:10:00,57.5,37.5,30.26,NNE,32,0.0,0.0,47,0.00,,---,0.00,VWS V14.01,2013-11-10 00:10:00,
2013-11-09 18:15:00,56.9,36.9,30.26,NNE,32,0.0,0.0,47,0.00,,---,0.00,VWS V14.01,2013-11-10 00:15:00,
2013-11-09 18:20:00,56.4,37.5,30.26,NNE,32,0.0,0.0,49,0.00,,---,0.00,VWS V14.01,2013-11-10 00:20:00,
2013-11-09 18:25:00,55.9,37.5,30.27,NNE,32,0.0,0.0,50,0.00,,---,0.00,VWS V14.01,2013-11-10 00:25:00,
2013-11-09 18:30:00,55.3,37.5,30.27,NNE,32,0.0,0.0,51,0.00,,---,0.00,VWS V14.01,2013-11-10 00:30:00,
2013-11-09 18:35:00,54.8,37.0,30.27,NNE,32,0.0,0.0,51,0.00,,---,0.00,VWS V14.01,2013-11-10 00:35:00,
2013-11-09 18:40:00,54.2,37.0,30.28,NNE,32,0.0,0.0,52,0.00,,---,0.00,VWS V14.01,2013-11-10 00:40:00,
2013-11-09 18:45:00,53.7,37.0,30.28,NNE,32,0.0,0.0,53,0.00,,---,0.00,VWS V14.01,2013-11-10 00:45:00,
2013-11-09 18:50:00,53.3,37.1,30.28,NNE,32,0.0,0.0,54,0.00,,---,0.00,VWS V14.01,2013-11-10 00:50:00,
2013-11-09 18:55:00,52.8,37.5,30.29,NNE,32,0.0,0.0,56,0.00,,---,0.00,VWS V14.01,2013-11-10 00:55:00,
2013-11-09 19:00:00,52.3,36.6,30.29,NNE,32,0.0,0.0,55,0.00,,---,0.00,VWS V14.01,2013-11-10 01:00:00,
2013-11-09 19:05:00,51.9,37.2,30.29,NNE,32,0.0,0.0,57,0.00,,---,0.00,VWS V14.01,2013-11-10 01:05:00,
2013-11-09 19:10:00,51.5,36.8,30.29,NNE,32,0.0,0.0,57,0.00,,---,0.00,VWS V14.01,2013-11-10 01:10:00,
2013-11-09 19:15:00,51.1,36.8,30.29,NNE,32,0.0,0.0,58,0.00,,---,0.00,VWS V14.01,2013-11-10 01:15:00,
2013-11-09 19:20:00,50.7,36.5,30.29,NNE,32,0.0,0.0,58,0.00,,---,0.00,VWS V14.01,2013-11-10 01:20:00,
2013-11-09 19:25:00,50.3,36.5,30.29,NNE,32,0.0,0.0,59,0.00,,---,0.00,VWS V14.01,2013-11-10 01:25:00,
2013-11-09 19:30:00,50.0,37.5,30.29,NNE,32,0.0,0.0,62,0.00,,---,0.00,VWS V14.01,2013-11-10 01:30:00,
2013-11-09 19:35:00,49.6,35.9,30.30,NNE,32,0.0,0.0,59,0.00,,---,0.00,VWS V14.01,2013-11-10 01:35:00,
2013-11-09 19:40:00,49.3,36.0,30.30,NNE,32,0.0,0.0,60,0.00,,---,0.00,VWS V14.01,2013-11-10 01:40:00,
2013-11-09 19:45:00,49.0,36.2,30.30,NNE,32,0.0,0.0,61,0.00,,---,0.00,VWS V14.01,2013-11-10 01:45:00,
2013-11-09 19:50:00,48.7,36.3,30.31,NNE,32,0.0,0.0,62,0.00,,---,0.00,VWS V14.01,2013-11-10 01:50:00,
2013-11-09 19:55:00,48.3,36.3,30.31,NNE,32,0.0,0.0,63,0.00,,---,0.00,VWS V14.01,2013-11-10 01:55:00,
2013-11-09 20:00:00,48.1,36.5,30.31,NNE,32,0.0,0.0,64,0.00,,---,0.00,VWS V14.01,2013-11-10 02:00:00,
2013-11-09 20:05:00,47.8,35.8,30.31,NNE,32,0.0,0.0,63,0.00,,---,0.00,VWS V14.01,2013-11-10 02:05:00,
2013-11-09 20:10:00,47.5,35.5,30.31,NNE,32,0.0,0.0,63,0.00,,---,0.00,VWS V14.01,2013-11-10 02:10:00,
2013-11-09 20:15:00,47.2,36.0,30.31,NNE,32,0.0,0.0,65,0.00,,---,0.00,VWS V14.01,2013-11-10 02:15:00,
2013-11-09 20:20:00,46.9,35.8,30.31,NNE,32,0.0,0.0,65,0.00,,---,0.00,VWS V14.01,2013-11-10 02:20:00,
2013-11-09 20:25:00,46.7,36.0,30.31,NNE,32,0.0,0.0,66,0.00,,---,0.00,VWS V14.01,2013-11-10 02:25:00,
2013-11-09 20:30:00,46.4,35.7,30.31,NNE,32,0.0,0.0,66,0.00,,---,0.00,VWS V14.01,2013-11-10 02:30:00,
2013-11-09 20:35:00,46.1,35.8,30.32,NNE,32,0.0,0.0,67,0.00,,---,0.00,VWS V14.01,2013-11-10 02:35:00,
2013-11-09 20:40:00,45.8,35.5,30.32,NNE,32,0.0,0.0,67,0.00,,---,0.00,VWS V14.01,2013-11-10 02:40:00,
2013-11-09 20:45:00,45.6,36.0,30.32,NNE,32,0.0,0.0,69,0.00,,---,0.00,VWS V14.01,2013-11-10 02:45:00,
2013-11-09 20:50:00,45.4,35.8,30.32,NNE,32,0.0,0.0,69,0.00,,---,0.00,VWS V14.01,2013-11-10 02:50:00,
2013-11-09 20:55:00,45.2,35.7,30.32,NNE,32,0.0,0.0,69,0.00,,---,0.00,VWS V14.01,2013-11-10 02:55:00,
2013-11-09 21:00:00,45.0,35.8,30.33,NNE,32,0.0,0.0,70,0.00,,---,0.00,VWS V14.01,2013-11-10 03:00:00,
2013-11-09 21:05:00,44.7,35.5,30.33,NNE,32,0.0,0.0,70,0.00,,---,0.00,VWS V14.01,2013-11-10 03:05:00,
2013-11-09 21:10:00,44.5,35.7,30.33,NNE,32,0.0,0.0,71,0.00,,---,0.00,VWS V14.01,2013-11-10 03:10:00,
2013-11-09 21:15:00,44.3,35.5,30.34,NNE,32,0.0,0.0,71,0.00,,---,0.00,VWS V14.01,2013-11-10 03:15:00,
2013-11-09 21:20:00,44.1,35.7,30.34,NNE,32,0.0,0.0,72,0.00,,---,0.00,VWS V14.01,2013-11-10 03:20:00,
2013-11-09 21:25:00,43.9,35.5,30.34,NNE,32,0.0,0.0,72,0.00,,---,0.00,VWS V14.01,2013-11-10 03:25:00,
2013-11-09 21:30:00,43.8,35.4,30.35,NNE,32,0.0,0.0,72,0.00,,---,0.00,VWS V14.01,2013-11-10 03:30:00,
2013-11-09 21:35:00,43.6,35.2,30.35,NNE,32,0.0,0.0,72,0.00,,---,0.00,VWS V14.01,2013-11-10 03:35:00,
2013-11-09 21:40:00,43.4,35.3,30.35,NNE,32,0.0,0.0,73,0.00,,---,0.00,VWS V14.01,2013-11-10 03:40:00,
2013-11-09 21:45:00,43.3,35.9,30.36,NNE,32,0.0,0.0,75,0.00,,---,0.00,VWS V14.01,2013-11-10 03:45:00,
2013-11-09 21:50:00,43.2,35.5,30.36,NNE,32,0.0,0.0,74,0.00,,---,0.00,VWS V14.01,2013-11-10 03:50:00,
2013-11-09 21:55:00,43.0,35.3,30.36,NNE,32,0.0,0.0,74,0.00,,---,0.00,VWS V14.01,2013-11-10 03:55:00,
2013-11-09 22:00:00,42.8,35.4,30.36,NNE,32,0.0,0.0,75,0.00,,---,0.00,VWS V14.01,2013-11-10 04:00:00,
2013-11-09 22:05:00,42.7,35.3,30.37,NNE,32,0.0,0.0,75,0.00,,---,0.00,VWS V14.01,2013-11-10 04:05:00,
2013-11-09 22:10:00,42.6,35.6,30.37,NNE,32,0.0,0.0,76,0.00,,---,0.00,VWS V14.01,2013-11-10 04:10:00,
2013-11-09 22:15:00,42.6,35.6,30.37,NNE,32,0.0,0.0,76,0.00,,---,0.00,VWS V14.01,2013-11-10 04:15:00,
2013-11-09 22:20:00,42.5,35.5,30.37,NNE,32,0.0,0.0,76,0.00,,---,0.00,VWS V14.01,2013-11-10 04:20:00,
2013-11-09 22:25:00,42.5,35.8,30.38,NNE,32,0.0,0.0,77,0.00,,---,0.00,VWS V14.01,2013-11-10 04:25:00,
2013-11-09 22:30:00,42.4,35.7,30.38,NNE,32,0.0,0.0,77,0.00,,---,0.00,VWS V14.01,2013-11-10 04:30:00,
2013-11-09 22:35:00,42.3,35.6,30.38,NNE,32,0.0,0.0,77,0.00,,---,0.00,VWS V14.01,2013-11-10 04:35:00,
2013-11-09 22:40:00,42.2,35.5,30.38,NNE,32,0.0,0.0,77,0.00,,---,0.00,VWS V14.01,2013-11-10 04:40:00,
2013-11-09 22:45:00,42.1,35.8,30.38,NNE,32,0.0,0.0,78,0.00,,---,0.00,VWS V14.01,2013-11-10 04:45:00,
2013-11-09 22:50:00,42.0,35.7,30.38,NNE,32,0.0,0.0,78,0.00,,---,0.00,VWS V14.01,2013-11-10 04:50:00,
2013-11-09 22:55:00,41.9,35.9,30.38,NNE,32,0.0,0.0,79,0.00,,---,0.00,VWS V14.01,2013-11-10 04:55:00,
2013-11-09 23:00:00,41.7,35.7,30.38,NNE,32,0.0,0.0,79,0.00,,---,0.00,VWS V14.01,2013-11-10 05:00:00,
2013-11-09 23:01:00,41.7,35.7,30.38,NNE,32,0.0,0.0,79,0.00,,---,0.00,VWS V14.01,2013-11-10 05:01:00,
2013-11-09 23:02:00,41.7,35.7,30.38,NNE,32,0.0,0.0,79,0.00,,---,0.00,VWS V14.01,2013-11-10 05:02:00,
2013-11-09 23:07:00,41.6,35.6,30.38,NNE,32,0.0,0.0,79,0.00,,---,0.00,VWS V14.01,2013-11-10 05:07:00,
2013-11-09 23:10:00,42.7,35.7,30.37,NNE,32,0.0,0.0,76,0.00,,---,0.00,VWS V14.01,2013-11-10 05:10:00,
2013-11-09 23:12:00,41.6,35.6,30.38,NNE,32,0.0,0.0,79,0.00,,---,0.00,VWS V14.01,2013-11-10 05:12:00,
2013-11-09 23:17:00,41.5,35.5,30.38,NNE,32,0.0,0.0,79,0.00,,---,0.00,VWS V14.01,2013-11-10 05:17:00,
2013-11-09 23:20:00,42.5,35.5,30.37,NNE,32,0.0,0.0,76,0.00,,---,0.00,VWS V14.01,2013-11-10 05:20:00,
2013-11-09 23:22:00,41.4,35.4,30.39,NNE,32,0.0,0.0,79,0.00,,---,0.00,VWS V14.01,2013-11-10 05:22:00,
2013-11-09 23:27:00,41.3,35.6,30.39,NNE,32,0.0,0.0,80,0.00,,---,0.00,VWS V14.01,2013-11-10 05:27:00,
2013-11-09 23:30:00,42.4,35.7,30.38,NNE,32,0.0,0.0,77,0.00,,---,0.00,VWS V14.01,2013-11-10 05:30:00,
2013-11-09 23:32:00,41.3,35.6,30.39,NNE,32,0.0,0.0,80,0.00,,---,0.00,VWS V14.01,2013-11-10 05:32:00,
2013-11-09 23:37:00,41.3,35.6,30.40,NNE,32,0.0,0.0,80,0.00,,---,0.00,VWS V14.01,2013-11-10 05:37:00,
2013-11-09 23:40:00,42.3,35.6,30.38,NNE,32,0.0,0.0,77,0.00,,---,0.00,VWS V14.01,2013-11-10 05:40:00,
2013-11-09 23:42:00,41.2,35.5,30.40,NNE,32,0.0,0.0,80,0.00,,---,0.00,VWS V14.01,2013-11-10 05:42:00,
2013-11-09 23:47:00,41.1,35.4,30.40,NNE,32,0.0,0.0,80,0.00,,---,0.00,VWS V14.01,2013-11-10 05:47:00,
2013-11-09 23:50:00,42.0,35.7,30.38,NNE,32,0.0,0.0,78,0.00,,---,0.00,VWS V14.01,2013-11-10 05:50:00,
2013-11-09 23:52:00,41.0,35.3,30.40,NNE,32,0.0,0.0,80,0.00,,---,0.00,VWS V14.01,2013-11-10 05:52:00,
2013-11-09 23:57:00,41.0,35.6,30.40,NNE,32,0.0,0.0,81,0.00,,---,0.00,VWS V14.01,2013-11-10 05:57:00,